Location: ??
(34.7707°N, 135.6540°E)
Time: 20:45:15
(UTC+00:00)

SL-16 R/B - Pass Details

Date: 09 April 2020
Orbit: 841 x 849 km, 71.0° (Epoch: 25 May)

Event Time Altitude Azimuth Distance (km) Brightness Sun altitude
Rises 18:17:33 0° 338° (NNW) 3,404 5.5 -26.6°
Reaches altitude 10° 18:20:00 10° 337° (NNW) 2,467 4.7 -26.1°
Maximum altitude 18:25:41 84° 251° (WSW) 853 2.0 -25.2°
Drops below altitude 10° 18:31:20 10° 163° (SSE) 2,458 4.5 -24.1°
Sets 18:33:46 0° 163° (SSE) 3,390 5.2 -23.7°
